Hourly Weather Benque Viejo del Carmen

Today, 16 April, Friday

Time Temperature Precipitation Wind Pressure Humidity
00:00 +22°C° 0 mm 1 mps 737 mmHg 98%
01:00 +22°C° 0 mm 1 mps 737 mmHg 97%
02:00 +23°C° 0 mm 1 mps 736 mmHg 97%
03:00 +23°C° 0 mm 1 mps 736 mmHg 96%
04:00 +23°C° 0 mm 1 mps 736 mmHg 96%
05:00 +23°C° 0 mm 1 mps 736 mmHg 96%
06:00 +23°C° 0 mm 1 mps 736 mmHg 96%
07:00 +26°C° 0 mm 1 mps 736 mmHg 82%
08:00 +29°C° 0 mm 1 mps 737 mmHg 68%
09:00 +32°C° 0 mm 2 mps 737 mmHg 54%
10:00 +36°C° 0 mm 2 mps 736 mmHg 46%
11:00 +38°C° 0 mm 2 mps 736 mmHg 38%
12:00 +40°C° 0 mm 2 mps 735 mmHg 30%
13:00 +40°C° 0 mm 2 mps 734 mmHg 29%
14:00 +40°C° 0 mm 2 mps 733 mmHg 28%
15:00 +42°C° 0 mm 3 mps 733 mmHg 27%
16:00 +38°C° 0 mm 3 mps 733 mmHg 37%
17:00 +36°C° 0 mm 3 mps 733 mmHg 46%
18:00 +33°C° 0 mm 3 mps 733 mmHg 56%
19:00 +30°C° 0 mm 3 mps 734 mmHg 67%
20:00 +28°C° 0 mm 2 mps 735 mmHg 78%
21:00 +26°C° 0 mm 2 mps 735 mmHg 89%
22:00 +25°C° 0 mm 2 mps 735 mmHg 91%
23:00 +25°C° 0 mm 2 mps 735 mmHg 93%

Tomorrow, 17 April, Saturday

Time Temperature Precipitation Wind Pressure Humidity
00:00 +24°C° 0 mm 1 mps 735 mmHg 95%
01:00 +24°C° 0 mm 1 mps 735 mmHg 94%
02:00 +24°C° 0 mm 1 mps 735 mmHg 94%
03:00 +24°C° 0 mm 1 mps 734 mmHg 94%
04:00 +23°C° 0 mm 1 mps 734 mmHg 94%
05:00 +23°C° 0 mm 1 mps 735 mmHg 94%
06:00 +23°C° 0 mm 1 mps 735 mmHg 94%
07:00 +27°C° 0 mm 1 mps 735 mmHg 78%
08:00 +31°C° 0 mm 1 mps 736 mmHg 61%
09:00 +35°C° 0 mm 1 mps 736 mmHg 45%
10:00 +37°C° 0 mm 1 mps 735 mmHg 38%
11:00 +40°C° 0 mm 1 mps 735 mmHg 32%
12:00 +42°C° 0 mm 2 mps 734 mmHg 26%
13:00 +42°C° 0 mm 2 mps 733 mmHg 26%
14:00 +41°C° 0 mm 2 mps 733 mmHg 26%
15:00 +41°C° 0 mm 2 mps 732 mmHg 27%
16:00 +39°C° 0 mm 2 mps 732 mmHg 37%
17:00 +36°C° 0 mm 3 mps 733 mmHg 47%
18:00 +34°C° 0 mm 3 mps 733 mmHg 57%
19:00 +31°C° 0 mm 3 mps 734 mmHg 64%
20:00 +30°C° 0 mm 2 mps 735 mmHg 72%
21:00 +28°C° 0 mm 2 mps 735 mmHg 80%
22:00 +27°C° 0 mm 2 mps 735 mmHg 82%
23:00 +27°C° 0 mm 1 mps 735 mmHg 84%

Day after tomorrow, 18 April, Sunday

Time Temperature Precipitation Wind Pressure Humidity
00:00 +26°C° 0 mm 1 mps 735 mmHg 87%
01:00 +25°C° 0 mm 1 mps 735 mmHg 89%
02:00 +25°C° 0 mm 1 mps 735 mmHg 90%
03:00 +23°C° 0 mm 0 mps 735 mmHg 92%
04:00 +23°C° 0.1 mm 0 mps 735 mmHg 93%
05:00 +23°C° 0.1 mm 0 mps 736 mmHg 94%
06:00 +23°C° 0.1 mm 0 mps 736 mmHg 94%
07:00 +25°C° 0 mm 0 mps 737 mmHg 81%
08:00 +28°C° 0 mm 0 mps 737 mmHg 68%
09:00 +33°C° 0 mm 1 mps 737 mmHg 55%
10:00 +35°C° 0 mm 1 mps 737 mmHg 48%
11:00 +37°C° 0 mm 1 mps 736 mmHg 41%
12:00 +40°C° 0 mm 1 mps 736 mmHg 34%
13:00 +37°C° 1.6 mm 2 mps 735 mmHg 48%
14:00 +32°C° 1.6 mm 2 mps 734 mmHg 62%
15:00 +29°C° 1.6 mm 3 mps 734 mmHg 75%
16:00 +27°C° 4.7 mm 3 mps 735 mmHg 82%
17:00 +24°C° 4.7 mm 3 mps 736 mmHg 89%
18:00 +21°C° 4.7 mm 3 mps 737 mmHg 96%
19:00 +21°C° 1 mm 2 mps 737 mmHg 96%
20:00 +22°C° 1 mm 1 mps 738 mmHg 96%
21:00 +22°C° 1 mm 1 mps 738 mmHg 97%
22:00 +22°C° 0 mm 1 mps 738 mmHg 97%
23:00 +20°C° 0 mm 0 mps 738 mmHg 97%

19 April, Monday

Time Temperature Precipitation Wind Pressure Humidity
00:00 +20°C° 0 mm 0 mps 738 mmHg 97%
01:00 +20°C° 0 mm 0 mps 738 mmHg 97%
02:00 +21°C° 0 mm 1 mps 738 mmHg 97%
03:00 +21°C° 0 mm 1 mps 737 mmHg 98%
04:00 +21°C° 0 mm 1 mps 738 mmHg 98%
05:00 +22°C° 0 mm 1 mps 738 mmHg 98%
06:00 +22°C° 0 mm 1 mps 738 mmHg 98%
07:00 +24°C° 0 mm 1 mps 739 mmHg 87%
08:00 +26°C° 0 mm 1 mps 739 mmHg 75%
09:00 +29°C° 0 mm 1 mps 739 mmHg 63%
10:00 +31°C° 0 mm 1 mps 739 mmHg 56%
11:00 +33°C° 0 mm 1 mps 738 mmHg 48%
12:00 +36°C° 0 mm 1 mps 738 mmHg 40%
13:00 +35°C° 0 mm 1 mps 737 mmHg 41%
14:00 +35°C° 0 mm 1 mps 736 mmHg 42%
15:00 +35°C° 0 mm 1 mps 735 mmHg 43%
16:00 +33°C° 0 mm 1 mps 736 mmHg 51%
17:00 +29°C° 0 mm 0 mps 736 mmHg 59%
18:00 +27°C° 0 mm 0 mps 736 mmHg 68%
19:00 +26°C° 0 mm 0 mps 737 mmHg 72%
20:00 +25°C° 0 mm 0 mps 737 mmHg 76%
21:00 +26°C° 0 mm 1 mps 738 mmHg 81%
22:00 +24°C° 0.1 mm 0 mps 738 mmHg 83%
23:00 +24°C° 0.1 mm 0 mps 738 mmHg 85%

20 April, Tuesday

Time Temperature Precipitation Wind Pressure Humidity
00:00 +23°C° 0.1 mm 0 mps 738 mmHg 87%
01:00 +23°C° 0 mm 0 mps 737 mmHg 88%
02:00 +23°C° 0 mm 0 mps 737 mmHg 89%
03:00 +23°C° 0 mm 0 mps 737 mmHg 89%
04:00 +22°C° 0 mm 0 mps 737 mmHg 90%
05:00 +22°C° 0 mm 0 mps 737 mmHg 91%
06:00 +22°C° 0 mm 0 mps 738 mmHg 92%
07:00 +25°C° 0 mm 0 mps 738 mmHg 79%
08:00 +28°C° 0 mm 0 mps 738 mmHg 67%
09:00 +32°C° 0 mm 1 mps 739 mmHg 54%
10:00 +34°C° 0 mm 1 mps 738 mmHg 48%
11:00 +36°C° 0 mm 1 mps 738 mmHg 43%
12:00 +39°C° 0 mm 1 mps 737 mmHg 37%
13:00 +37°C° 0 mm 2 mps 736 mmHg 40%
14:00 +36°C° 0 mm 2 mps 736 mmHg 44%
15:00 +35°C° 0 mm 2 mps 735 mmHg 48%
16:00 +34°C° 0.1 mm 2 mps 736 mmHg 55%
17:00 +31°C° 0.1 mm 2 mps 736 mmHg 63%
18:00 +30°C° 0.1 mm 2 mps 736 mmHg 70%
19:00 +28°C° 0.1 mm 2 mps 737 mmHg 77%
20:00 +27°C° 0.1 mm 2 mps 737 mmHg 84%
21:00 +26°C° 0.1 mm 2 mps 738 mmHg 92%
22:00 +25°C° 0.7 mm 1 mps 738 mmHg 94%
23:00 +25°C° 0.7 mm 1 mps 738 mmHg 96%

21 April, Wednesday

Time Temperature Precipitation Wind Pressure Humidity
00:00 +25°C° 0.7 mm 1 mps 738 mmHg 98%
01:00 +25°C° 0.2 mm 1 mps 738 mmHg 98%
02:00 +22°C° 0.2 mm 0 mps 738 mmHg 98%
03:00 +22°C° 0.2 mm 0 mps 738 mmHg 99%
04:00 +22°C° 0.5 mm 0 mps 738 mmHg 99%
05:00 +22°C° 0.5 mm 0 mps 738 mmHg 99%
06:00 +22°C° 0.5 mm 0 mps 739 mmHg 99%
07:00 +23°C° 0.4 mm 0 mps 739 mmHg 94%
08:00 +25°C° 0.4 mm 0 mps 740 mmHg 90%
09:00 +26°C° 0.4 mm 0 mps 740 mmHg 85%
10:00 +28°C° 1.2 mm 1 mps 740 mmHg 83%
11:00 +29°C° 1.2 mm 1 mps 739 mmHg 81%
12:00 +30°C° 1.2 mm 2 mps 739 mmHg 79%
13:00 +30°C° 0.5 mm 2 mps 739 mmHg 72%
14:00 +31°C° 0.5 mm 2 mps 738 mmHg 65%
15:00 +32°C° 0.5 mm 2 mps 738 mmHg 58%
16:00 +31°C° 0 mm 2 mps 738 mmHg 63%
17:00 +29°C° 0 mm 2 mps 738 mmHg 68%
18:00 +28°C° 0 mm 3 mps 738 mmHg 73%
19:00 +27°C° 0 mm 2 mps 739 mmHg 80%
20:00 +26°C° 0 mm 2 mps 739 mmHg 87%
21:00 +25°C° 0 mm 1 mps 740 mmHg 93%
22:00 +24°C° 0 mm 1 mps 740 mmHg 95%
23:00 +24°C° 0 mm 1 mps 740 mmHg 96%
Show more